Fedora — SLKU — position and weather

sailwx.info

Track history (hours):
 
Tides and Currents Weather Stations Pressure Air Temp Water Temp Dewpoint Dewpoint Depression Visibility Wind Speed Wind Dir Waves Ship Positions

Fedora

Last reported at 2014-Oct-25 06:26 UTC. Time now 2014-Oct-25 07:09 UTC.
Position S 38°39' E 148°27'.

Length 228 m; draft 8.7 m.

Type: Cargo ship. MMSI: 266259000.

Date/timePositionNaut miles runAvg speedWind from/ knotsBaromVisibWave heightAir tempDewpointWater temp
2014-Oct-25 06:26S 38°39' E 148°27'1615.1
2014-Oct-25 05:22S 38°48' E 148°10'2915.1
2014-Oct-25 03:27S 38°58' E 147°35'1414.8
2014-Oct-25 02:32S 39°03' E 147°19'9615.4
2014-Oct-24 20:18S 38°47' E 145°17'1417.1
2014-Oct-24 19:29S 38°39' E 145°02'109 3.7
2014-Oct-23 14:12S 38°50' E 142°42'914.5
2014-Oct-23 13:33S 38°49' E 142°30'1515.1
2014-Oct-23 12:33S 38°46' E 142°11'1514.7
2014-Oct-23 11:33S 38°44' E 141°53'2914.6
2014-Oct-23 09:32S 38°39' E 141°15'1515.1
2014-Oct-23 08:32S 38°36' E 140°56'1715.2
2014-Oct-23 07:23S 38°33' E 140°34'1415.3
2014-Oct-23 06:27S 38°31' E 140°16'  
Track history (hours):
 
Tides and Currents Weather Stations Pressure Air Temp Water Temp Dewpoint Dewpoint Depression Visibility Wind Speed Wind Dir Waves Ship Positions

Fedora

Last reported at 2014-Oct-25 06:26 UTC. Time now 2014-Oct-25 07:09 UTC.
Position S 38°39' E 148°27'.

Length 228 m; draft 8.7 m.

Type: Cargo ship. MMSI: 266259000.

Date/timePositionNaut miles runAvg speedWind from/ knotsBaromVisibWave heightAir tempDewpointWater temp
2014-Oct-25 06:26S 38°39' E 148°27'1615.1
2014-Oct-25 05:22S 38°48' E 148°10'2915.1
2014-Oct-25 03:27S 38°58' E 147°35'1414.8
2014-Oct-25 02:32S 39°03' E 147°19'9615.4
2014-Oct-24 20:18S 38°47' E 145°17'1417.1
2014-Oct-24 19:29S 38°39' E 145°02'109 3.7
2014-Oct-23 14:12S 38°50' E 142°42'914.5
2014-Oct-23 13:33S 38°49' E 142°30'1515.1
2014-Oct-23 12:33S 38°46' E 142°11'1514.7
2014-Oct-23 11:33S 38°44' E 141°53'2914.6
2014-Oct-23 09:32S 38°39' E 141°15'1515.1
2014-Oct-23 08:32S 38°36' E 140°56'1715.2
2014-Oct-23 07:23S 38°33' E 140°34'1415.3
2014-Oct-23 06:27S 38°31' E 140°16'  

Dump ship's entire track history